sat.trackr.live / text

‹ back to catalog

STARLINK-3599

NORAD 51814 · 2022-017AY

PAYLOAD ACTIVE UNKNOWN

§ Identity

Operator
Country
US
Launch date
2022-02-25
Launch site
AFWTR
Launch vehicle
Mass (kg)
RCS (m²)

Purposes: comms

External: N2YO · Heavens-Above · Gunter

§ Orbital elements

Epoch: 2026-05-24T22:30:16.396128Z

Period
95.44 min
Inclination
53.2139°
Eccentricity
0.0001209
Mean motion
15.08838013 rev/d
Perigee alt
538.9 km
Apogee alt
540.6 km
Semi-major
6,917.9 km
B*
4.6156e-5
RAAN
346.8310°
Arg perigee
81.7715°
Mean anomaly
278.3414°
Rev number
23,559

§ Raw data

STARLINK-35991 51814U 22017AY  26144.93768977  .00000447  00000+0  46156-4 0  99942 51814  53.2139 346.8310 0001209  81.7715 278.3414 15.08838013235590

JSON: /api/v1/satellites/51814 · /tle

For live sub-satellite position, see the globe view (requires WebGL).

§ Visibility from observer

Set your observer location to see the next 7 days of passes ≥ 10°. The values pass through the URL so the page stays shareable.

No JS? Fill the form by hand. The geolocation button needs JavaScript.